Location: Okie-Tex Star Party
(36.8978°N, 102.9520°W)
Time: 03:58:17
(UTC-05:00)

Amateur Radio Satellites - All Passes

Search period start: 20 October 2017 03:28
Search period end: 21 October 2017 03:28
Location: Okie-Tex Star Party, 36.8978°N, 102.9520°W

Satellite Date Start Highest point End Downlink Frequencies (MHz)
Time Altitude Azimuth
MOZHAYETS 4 20 Oct 03:44:37 03:48:45 33° 71° (ENE) 03:52:53
Oscar 19 20 Oct 03:57:43 04:02:39 49° 288° (WNW) 04:07:34 437.125/150
BUGSAT 1 20 Oct 04:01:12 04:03:49 16° 293° (WNW) 04:06:25 437.445
NO-84 20 Oct 04:08:03 04:12:18 67° 132° (SE) 04:16:33 435.350 FM
ITUPSAT 1 20 Oct 04:09:02 04:13:43 55° 73° (ENE) 04:18:26 437.325
AO-7 20 Oct 04:10:19 04:16:32 23° 95° (E) 04:22:43 .
BEESAT 20 Oct 04:24:44 04:29:31 84° 75° (ENE) 04:34:20 436.000
Gurwin Techsat 1B 20 Oct 04:25:40 04:30:38 41° 290° (WNW) 04:35:34 435.225
ITAMSAT 1 20 Oct 04:30:24 04:33:59 18° 94° (E) 04:37:32 435.822/435.867
RS-15 20 Oct 04:56:46 05:06:21 25° 329° (NNW) 05:15:53 29.354- 29.394
M-CUBED/EXP-1 PRIME 20 Oct 05:00:23 05:00:38 10° 298° (WNW) 05:00:54 437.505
KKS-1 20 Oct 05:15:49 05:18:54 19° 67° (ENE) 05:22:00 437.445
MOZHAYETS 4 20 Oct 05:22:23 05:25:54 21° 265° (W) 05:29:27
CUBESAT XI-V 20 Oct 05:31:10 05:35:48 82° 259° (W) 05:40:27 437.345
NO-84 20 Oct 05:46:50 05:50:04 20° 328° (NNW) 05:53:15 435.350 FM
ITUPSAT 1 20 Oct 05:49:29 05:51:50 13° 268° (W) 05:54:11 437.325
STARS 20 Oct 05:49:51 05:52:44 17° 66° (ENE) 05:55:37 437.465
AO-7 20 Oct 06:01:35 06:09:50 70° 291° (WNW) 06:18:04 .
ITAMSAT 1 20 Oct 06:08:38 06:13:39 48° 289° (WNW) 06:18:39 435.822/435.867
O/OREOS (USA 219) 20 Oct 06:36:28 06:38:06 12° 55° (NE) 06:39:45 437.305
LilacSat-2 20 Oct 06:50:19 06:51:14 11° 92° (E) 06:52:09 437.200
KKS-1 20 Oct 06:51:06 06:55:10 35° 262° (W) 06:59:16 437.445
XW-2D 20 Oct 06:57:10 06:58:55 13° 93° (E) 07:00:40 145.860 - 145.880
DOVE 4 20 Oct 07:02:51 07:07:54 85° 100° (E) 07:13:09 437.250
XW-2B 20 Oct 07:09:50 07:12:28 18° 95° (E) 07:15:04 145.730 - 145.750
RS-15 20 Oct 07:18:29 07:25:22 16° 6° (N) 07:32:05 29.354- 29.394
STARS 20 Oct 07:24:40 07:28:44 38° 261° (W) 07:32:51 437.465
XW-2C 20 Oct 07:32:21 07:35:50 36° 98° (E) 07:39:17 145.795 - 145.815
JUGNU 20 Oct 07:40:17 07:42:27 12° 171° (S) 07:44:37 437.505
STRAND 1 20 Oct 07:51:58 07:56:32 34° 69° (ENE) 08:01:07 437.568
AO-7 20 Oct 07:57:14 08:01:06 14° 310° (NW) 08:04:58 .
SO-50 20 Oct 08:03:01 08:07:30 89° 121° (ESE) 08:12:00 436.795
PCSat 20 Oct 08:05:28 08:07:51 13° 103° (ESE) 08:10:14 145.827
HO-68 20 Oct 08:07:39 08:13:45 29° 96° (E) 08:19:48 435.675
O/OREOS (USA 219) 20 Oct 08:13:26 08:18:01 70° 252° (WSW) 08:22:33 437.305
CUTE-I 20 Oct 08:15:13 08:20:37 84° 103° (ESE) 08:26:00 437.470
CUTE 1.7 + AOD 2 20 Oct 08:15:16 08:18:42 24° 95° (E) 08:22:07 437.475
KAITUO 1B 20 Oct 08:15:59 08:19:41 78° 281° (W) 08:23:20 145.475/437.950
XW-2F 20 Oct 08:17:23 08:21:02 55° 285° (WNW) 08:24:40 145.980 - 146.000
LilacSat-2 20 Oct 08:22:08 08:25:41 41° 286° (WNW) 08:29:13 437.200
SEEDS 20 Oct 08:23:23 08:26:12 18° 94° (E) 08:29:02 437.485
XW-2D 20 Oct 08:29:48 08:33:11 34° 287° (WNW) 08:36:35 145.860 - 145.880
NUDT-PHONESAT 20 Oct 08:30:45 08:34:18 49° 285° (WNW) 08:37:49 437.300
XW-2A 20 Oct 08:36:49 08:37:41 11° 93° (E) 08:38:33 145.665 - 145.685
XW-2B 20 Oct 08:43:31 08:46:35 24° 289° (WNW) 08:49:38 145.730 - 145.750
DOVE 4 20 Oct 08:43:45 08:44:55 11° 297° (WNW) 08:46:03 437.250
AAUSAT CUBESAT 2 20 Oct 08:48:29 08:50:45 14° 93° (E) 08:53:00 437.432
FO-29 20 Oct 08:55:38 08:59:27 21° 64° (ENE) 09:03:27 435.910
XW-2C 20 Oct 09:07:56 09:09:39 13° 293° (WNW) 09:11:20 145.795 - 145.815
AO-73 20 Oct 09:09:00 09:11:10 14° 91° (E) 09:13:19 145.935
CUBEBUG 2 20 Oct 09:12:34 09:17:11 66° 101° (E) 09:21:37 437.445
YUBILEINY 20 Oct 09:26:40 09:33:07 24° 82° (E) 09:39:35 435.215
JUGNU 20 Oct 09:27:38 09:30:37 14° 182° (S) 09:33:35 437.505
ZACube-1 20 Oct 09:29:38 09:33:22 27° 96° (E) 09:37:01 437.345
STRAND 1 20 Oct 09:31:30 09:35:41 25° 264° (W) 09:39:55 437.568
RS-15 20 Oct 09:32:42 09:43:18 34° 40° (NE) 09:53:21 29.354- 29.394
PCSat 20 Oct 09:45:09 09:50:32 72° 297° (WNW) 09:55:59 145.827
SO-50 20 Oct 09:47:04 09:48:35 11° 318° (NW) 09:50:06 436.795
CUTE 1.7 + AOD 2 20 Oct 09:51:02 09:54:25 24° 290° (WNW) 09:57:47 437.475
UWE-3 20 Oct 09:51:08 09:55:38 81° 285° (WNW) 10:00:00 435.000/436.395/437.385
UNISAT 6 20 Oct 09:52:30 09:55:28 17° 66° (ENE) 09:58:29 437.425
HO-68 20 Oct 09:54:46 10:01:38 49° 292° (WNW) 10:08:28 435.675
ISS 20 Oct 09:55:47 09:57:27 13° 128° (SE) 09:59:07 437.550
CUTE-I 20 Oct 09:57:58 09:59:53 12° 299° (WNW) 10:01:47 437.470
SEEDS 20 Oct 09:58:13 10:01:55 32° 288° (WNW) 10:05:37 437.485
SRMSAT 20 Oct 10:04:00 10:05:14 11° 168° (SSE) 10:06:28 437.500
Oscar 11 20 Oct 10:06:22 10:10:30 43° 99° (E) 10:14:34 .
TIGRISAT 20 Oct 10:06:41 10:10:13 22° 68° (ENE) 10:13:48 435.000
XW-2A 20 Oct 10:07:30 10:10:29 30° 287° (WNW) 10:13:26 145.665 - 145.685
DELFI C3 20 Oct 10:19:16 10:20:07 11° 92° (E) 10:20:57 145.870
AAUSAT CUBESAT 2 20 Oct 10:22:29 10:26:19 38° 287° (WNW) 10:30:09 437.432
FO-29 20 Oct 10:39:19 10:44:12 42° 262° (W) 10:49:22 435.910
AO-73 20 Oct 10:43:30 10:47:37 43° 287° (WNW) 10:51:38 145.935
NO-84 20 Oct 10:44:26 10:47:06 18° 30° (NNE) 10:49:38 435.350 FM
CUBEBUG 2 20 Oct 10:51:38 10:53:08 11° 297° (WNW) 10:54:37 437.445
nSIGHT-1 20 Oct 10:57:48 11:00:59 84° 139° (SE) 11:04:10 .
PRISM 20 Oct 10:59:17 11:02:58 35° 72° (ENE) 11:06:40 437.425
EO-88 20 Oct 11:03:41 11:06:15 18° 95° (E) 11:08:48 145.990 - 145.960
ZACube-1 20 Oct 11:06:06 11:09:28 22° 291° (WNW) 11:12:47 437.345
Max Valier Satellite 20 Oct 11:12:35 11:15:57 34° 98° (E) 11:19:18 145.860
JUGNU 20 Oct 11:17:53 11:18:45 10° 192° (SSW) 11:19:38 437.505
YUBILEINY 20 Oct 11:20:31 11:29:06 65° 280° (W) 11:37:46 435.215
UNISAT 6 20 Oct 11:27:21 11:31:46 44° 262° (W) 11:36:16 437.425
ISS 20 Oct 11:30:26 11:33:36 49° 322° (NW) 11:36:47 437.550
PCSat 20 Oct 11:33:19 11:34:54 11° 317° (NW) 11:36:28 145.827
TIGRISAT 20 Oct 11:42:29 11:46:39 33° 263° (W) 11:50:54 435.000
Oscar 11 20 Oct 11:43:51 11:46:13 15° 294° (WNW) 11:48:34 .
RS-15 20 Oct 11:45:07 11:56:54 76° 245° (WSW) 12:08:03 29.354- 29.394
SRMSAT 20 Oct 11:50:26 11:53:32 15° 178° (S) 11:56:40 437.500
DELFI C3 20 Oct 11:51:16 11:55:05 47° 285° (WNW) 11:58:54 145.870
AIST 2D 20 Oct 12:05:01 12:08:22 45° 75° (ENE) 12:11:45 435.315
ESTCUBE 1 20 Oct 12:09:14 12:10:33 11° 91° (E) 12:11:53 437.505/2401.250
NO-84 20 Oct 12:21:11 12:24:48 56° 230° (SW) 12:28:06 435.350 FM
BEESAT 3 20 Oct 12:21:56 12:24:53 20° 111° (ESE) 12:27:51 437.485
EO-79 20 Oct 12:25:15 12:28:58 30° 71° (ENE) 12:32:44 145.935-145.965
POLYITAN 1 20 Oct 12:29:49 12:33:41 34° 72° (ENE) 12:37:34 437.675
nSIGHT-1 20 Oct 12:35:50 12:37:38 14° 335° (NNW) 12:39:26 .
PRISM 20 Oct 12:35:58 12:38:19 15° 266° (W) 12:40:41 437.425
EO-88 20 Oct 12:36:56 12:39:49 23° 289° (WNW) 12:42:41 145.990 - 145.960
Max Valier Satellite 20 Oct 12:47:45 12:49:26 13° 292° (WNW) 12:51:06 145.860
QB50P2 20 Oct 12:49:41 12:53:53 67° 76° (ENE) 12:58:10 145.880/145.840
NANOSAT C BR1 20 Oct 12:52:59 12:57:09 57° 74° (ENE) 13:01:21 145.865
DUCHIFAT 1 20 Oct 13:03:41 13:07:52 67° 76° (ENE) 13:12:07 145.980
ISS 20 Oct 13:09:56 13:10:42 11° 341° (NNW) 13:11:28 437.550
BUGSAT 1 20 Oct 13:12:41 13:15:45 20° 68° (ENE) 13:18:50 437.445
LO-87 20 Oct 13:25:59 13:29:29 46° 285° (WNW) 13:32:56 145.935 - 145.965
YUBILEINY 20 Oct 13:26:46 13:27:47 10° 301° (WNW) 13:28:47 435.215
AO-85 20 Oct 13:26:50 13:29:31 18° 111° (ESE) 13:32:14 145.980
VELOX 1 20 Oct 13:34:00 13:36:47 16° 94° (E) 13:39:34 145.980
Oscar 19 20 Oct 13:34:24 13:38:12 21° 66° (ENE) 13:41:59 437.125/150
SRMSAT 20 Oct 13:39:32 13:41:53 12° 189° (S) 13:44:13 437.500
BEESAT 2 20 Oct 13:41:33 13:45:22 46° 115° (ESE) 13:49:15 435.950
ESTCUBE 1 20 Oct 13:43:16 13:47:40 58° 286° (WNW) 13:52:04 437.505/2401.250
BEESAT 3 20 Oct 13:58:39 14:02:12 30° 306° (NW) 14:05:48 437.485
EO-79 20 Oct 14:01:37 14:04:44 20° 266° (W) 14:07:52 145.935-145.965
RS-15 20 Oct 14:01:49 14:07:03 14° 264° (W) 14:12:12 29.354- 29.394
Gurwin Techsat 1B 20 Oct 14:05:15 14:09:45 29° 68° (ENE) 14:14:17 435.225
POLYITAN 1 20 Oct 14:06:38 14:09:30 18° 266° (W) 14:12:25 437.675
M-CUBED/EXP-1 PRIME 20 Oct 14:07:16 14:10:27 38° 69° (ENE) 14:13:33 437.505
SPROUT 20 Oct 14:23:42 14:28:01 85° 283° (WNW) 14:32:18 437.525
NANOSAT C BR1 20 Oct 14:32:40 14:33:10 10° 269° (W) 14:33:40 145.865
DX 1 20 Oct 14:39:43 14:42:59 20° 95° (E) 14:46:14 434.975-435.025
BUGSAT 1 20 Oct 14:47:13 14:50:52 29° 263° (W) 14:54:35 437.445
UKube-1 20 Oct 15:03:25 15:06:53 23° 96° (E) 15:10:20 .
AO-85 20 Oct 15:06:13 15:09:38 30° 307° (NW) 15:13:09 145.980
AO-7 20 Oct 15:07:08 15:13:49 28° 58° (ENE) 15:20:29 .
VELOX 1 20 Oct 15:09:12 15:13:21 40° 288° (WNW) 15:17:29 145.980
Oscar 19 20 Oct 15:12:17 15:17:11 43° 261° (W) 15:22:05 437.125/150
BEESAT 2 20 Oct 15:20:50 15:23:20 16° 312° (NW) 15:25:51 435.950
50 SAT 20 Oct 15:40:24 15:43:32 42° 285° (WNW) 15:46:39 437.505
Gurwin Techsat 1B 20 Oct 15:44:54 15:49:34 31° 263° (W) 15:54:17 435.225
ITAMSAT 1 20 Oct 15:46:05 15:50:07 23° 66° (ENE) 15:54:11 435.822/435.867
ITUPSAT 1 20 Oct 16:12:57 16:16:01 17° 93° (E) 16:19:03 437.325
DX 1 20 Oct 16:15:18 16:19:09 31° 290° (WNW) 16:23:00 434.975-435.025
ISS 20 Oct 16:24:51 16:26:19 12° 22° (NNE) 16:27:46 437.550
BEESAT 20 Oct 16:27:40 16:31:35 25° 96° (E) 16:35:28 436.000
SO-50 20 Oct 16:36:18 16:40:41 41° 55° (NE) 16:45:07 436.795
UKube-1 20 Oct 16:39:12 16:42:50 27° 290° (WNW) 16:46:26 .
AO-7 20 Oct 16:57:47 17:05:59 63° 256° (WSW) 17:14:12 .
MOZHAYETS 4 20 Oct 17:18:14 17:22:49 77° 284° (WNW) 17:27:21
ITAMSAT 1 20 Oct 17:24:31 17:29:19 38° 261° (W) 17:34:10 435.822/435.867
nSIGHT-1 20 Oct 17:26:50 17:29:49 36° 35° (NE) 17:32:49 .
CUBESAT XI-V 20 Oct 17:30:16 17:34:14 28° 96° (E) 17:38:11 437.345
ITUPSAT 1 20 Oct 17:49:27 17:54:00 44° 288° (WNW) 17:58:32 437.325
CUTE-I 20 Oct 17:58:21 18:00:41 13° 61° (ENE) 18:03:02 437.470
ISS 20 Oct 18:00:02 18:03:18 69° 40° (NE) 18:06:33 437.550
BEESAT 20 Oct 18:05:09 18:09:18 30° 291° (WNW) 18:13:26 436.000
DOVE 4 20 Oct 18:06:25 18:10:30 61° 76° (ENE) 18:14:46 437.250
XW-2C 20 Oct 18:12:36 18:14:35 14° 68° (ENE) 18:16:33 145.795 - 145.815
SO-50 20 Oct 18:17:31 18:20:51 20° 250° (WSW) 18:24:12 436.795
PCSat 20 Oct 18:35:18 18:40:38 55° 60° (ENE) 18:45:55 145.827
HO-68 20 Oct 18:35:45 18:40:13 18° 58° (ENE) 18:44:42 435.675
KKS-1 20 Oct 18:43:43 18:48:04 49° 100° (E) 18:52:24 437.445
KAITUO 1B 20 Oct 18:53:30 18:56:50 31° 73° (ENE) 19:00:08 145.475/437.950
XW-2F 20 Oct 18:55:26 18:59:02 44° 74° (ENE) 19:02:38 145.980 - 146.000
LilacSat-2 20 Oct 19:01:00 19:04:47 62° 76° (ENE) 19:08:34 437.200
nSIGHT-1 20 Oct 19:03:36 19:05:54 18° 230° (SW) 19:08:13 .
CUTE 1.7 + AOD 2 20 Oct 19:06:53 19:09:00 14° 66° (ENE) 19:11:06 437.475
NUDT-PHONESAT 20 Oct 19:06:59 19:10:32 45° 75° (ENE) 19:14:06 437.300
CUBESAT XI-V 20 Oct 19:07:44 19:11:27 25° 291° (WNW) 19:15:09 437.345
XW-2D 20 Oct 19:07:51 19:11:37 74° 77° (ENE) 19:15:25 145.860 - 145.880
STARS 20 Oct 19:15:48 19:20:02 43° 99° (E) 19:24:15 437.465
XW-2B 20 Oct 19:21:17 19:25:05 76° 257° (WSW) 19:28:53 145.730 - 145.750
CUTE-I 20 Oct 19:34:44 19:40:02 76° 257° (WSW) 19:45:23 437.470
XW-2C 20 Oct 19:44:55 19:48:25 35° 262° (W) 19:51:56 145.795 - 145.815
STRAND 1 20 Oct 20:06:13 20:08:41 13° 91° (E) 20:11:10 437.568
CUBEBUG 2 20 Oct 20:07:42 20:12:03 41° 72° (ENE) 20:16:30 437.445
HO-68 20 Oct 20:19:52 20:27:03 83° 255° (WSW) 20:34:17 435.675
PCSat 20 Oct 20:20:00 20:23:31 18° 255° (WSW) 20:27:01 145.827
KKS-1 20 Oct 20:21:43 20:24:11 15° 295° (WNW) 20:26:37 437.445
ZACube-1 20 Oct 20:23:21 20:26:30 19° 67° (ENE) 20:29:38 437.345
KAITUO 1B 20 Oct 20:28:50 20:30:52 14° 267° (W) 20:32:53 145.475/437.950
XW-2F 20 Oct 20:32:51 20:33:20 10° 268° (W) 20:33:50 145.980 - 146.000
XW-2A 20 Oct 20:35:33 20:38:50 48° 76° (ENE) 20:42:09 145.665 - 145.685
CUTE 1.7 + AOD 2 20 Oct 20:40:21 20:44:24 45° 261° (W) 20:48:29 437.475
UWE-3 20 Oct 20:44:53 20:49:26 60° 75° (ENE) 20:54:03 435.000/436.395/437.385
O/OREOS (USA 219) 20 Oct 20:45:39 20:48:41 18° 100° (E) 20:51:45 437.305
SEEDS 20 Oct 20:46:39 20:50:48 65° 259° (W) 20:54:57 437.485
STARS 20 Oct 20:53:17 20:55:59 16° 294° (WNW) 20:58:41 437.465
Oscar 11 20 Oct 20:59:04 21:02:38 25° 70° (ENE) 21:06:11 .
AAUSAT CUBESAT 2 20 Oct 21:09:27 21:13:33 85° 256° (WSW) 21:17:41 437.432
YUBILEINY 20 Oct 21:33:22 21:42:01 58° 79° (E) 21:50:40 435.215
AO-73 20 Oct 21:35:29 21:40:02 80° 257° (WSW) 21:44:38 145.935
STRAND 1 20 Oct 21:43:09 21:48:15 62° 286° (WNW) 21:53:19 437.568
CUBEBUG 2 20 Oct 21:45:40 21:48:48 18° 268° (W) 21:51:59 437.445
FO-29 20 Oct 21:48:46 21:54:57 31° 96° (E) 22:01:34 435.910
Max Valier Satellite 20 Oct 21:50:44 21:52:15 12° 67° (ENE) 21:53:45 145.860
ZACube-1 20 Oct 21:58:09 22:02:26 39° 262° (W) 22:06:44 437.345
AO-85 20 Oct 21:59:17 22:01:34 13° 46° (NE) 22:03:54 145.980
BEESAT 2 20 Oct 22:02:03 22:04:31 15° 48° (NE) 22:06:56 435.950
HO-68 20 Oct 22:13:13 22:15:39 12° 271° (W) 22:18:06 435.675
BEESAT 3 20 Oct 22:16:46 22:20:42 71° 58° (ENE) 22:24:34 437.485
O/OREOS (USA 219) 20 Oct 22:23:30 22:27:44 38° 296° (WNW) 22:32:02 437.305
UWE-3 20 Oct 22:24:30 22:26:13 12° 270° (W) 22:27:56 435.000/436.395/437.385
DELFI C3 20 Oct 22:33:38 22:37:29 64° 76° (ENE) 22:41:21 145.870
Oscar 11 20 Oct 22:35:08 22:38:39 24° 265° (W) 22:42:12 .
EO-88 20 Oct 23:11:03 23:14:43 81° 258° (WSW) 23:18:22 145.990 - 145.960
UNISAT 6 20 Oct 23:21:13 23:25:38 45° 99° (E) 23:29:56 437.425
Max Valier Satellite 20 Oct 23:22:10 23:25:41 39° 262° (W) 23:29:12 145.860
YUBILEINY 20 Oct 23:31:11 23:38:11 28° 277° (W) 23:45:13 435.215
FO-29 20 Oct 23:33:20 23:40:00 49° 289° (WNW) 23:47:15 435.910
TIGRISAT 20 Oct 23:35:48 23:40:21 61° 100° (E) 23:44:46 435.000
AO-85 20 Oct 23:37:46 23:42:25 80° 240° (WSW) 23:47:25 145.980
BEESAT 2 20 Oct 23:38:36 23:42:29 46° 244° (WSW) 23:46:17 435.950
RS-15 20 Oct 23:55:58 00:04:18 22° 99° (E) 00:12:39 29.354- 29.394
LO-87 20 Oct 23:59:11 00:02:35 42° 74° (ENE) 00:06:01 145.935 - 145.965
PRISM 21 Oct 00:17:09 00:21:18 83° 105° (ESE) 00:25:26 437.425
VELOX 1 21 Oct 00:30:34 00:31:58 11° 64° (ENE) 00:33:22 145.980
QB50P2 21 Oct 00:38:34 00:40:29 13° 92° (E) 00:42:24 145.880/145.840
ESTCUBE 1 21 Oct 00:39:57 00:44:27 86° 258° (WSW) 00:48:58 437.505/2401.250
NANOSAT C BR1 21 Oct 00:42:08 00:43:04 11° 91° (E) 00:44:00 145.865
DUCHIFAT 1 21 Oct 00:51:48 00:53:33 12° 92° (E) 00:55:17 145.980
UNISAT 6 21 Oct 00:59:10 01:01:54 16° 295° (WNW) 01:04:37 437.425
AIST 2D 21 Oct 01:04:48 01:08:16 81° 101° (ESE) 01:11:43 435.315
SPROUT 21 Oct 01:14:15 01:18:24 52° 74° (ENE) 01:22:34 437.525
TIGRISAT 21 Oct 01:14:38 01:16:25 12° 296° (WNW) 01:18:12 435.000
DX 1 21 Oct 01:34:03 01:36:18 14° 65° (ENE) 01:38:32 434.975-435.025
EO-79 21 Oct 01:46:59 01:51:16 78° 101° (ESE) 01:55:29 145.935-145.965
POLYITAN 1 21 Oct 01:51:54 01:56:11 89° 108° (ESE) 02:00:24 437.675
UKube-1 21 Oct 01:56:29 01:59:00 16° 66° (ENE) 02:01:33 .
RS-15 21 Oct 02:02:50 02:15:08 90° 292° (WNW) 02:27:31 29.354- 29.394
VELOX 1 21 Oct 02:03:32 02:07:50 61° 259° (WSW) 02:12:12 145.980
50 SAT 21 Oct 02:06:28 02:09:24 32° 73° (ENE) 02:12:21 437.505
QB50P2 21 Oct 02:12:24 02:16:29 46° 287° (WNW) 02:20:31 145.880/145.840
NANOSAT C BR1 21 Oct 02:14:55 02:19:04 54° 286° (WNW) 02:23:11 145.865
Gurwin Techsat 1B 21 Oct 02:25:09 02:27:33 13° 91° (E) 02:29:56 435.225
DUCHIFAT 1 21 Oct 02:25:22 02:29:26 47° 286° (WNW) 02:33:28 145.980
BUGSAT 1 21 Oct 02:30:33 02:34:36 44° 99° (E) 02:38:35 437.445
SPROUT 21 Oct 02:53:07 02:54:33 11° 269° (W) 02:55:59 437.525
DX 1 21 Oct 03:07:52 03:12:02 47° 260° (W) 03:16:14 434.975-435.025
ITUPSAT 1 21 Oct 03:17:50 03:20:48 16° 65° (ENE) 03:23:46 437.325
M-CUBED/EXP-1 PRIME 21 Oct 03:20:33 03:24:03 43° 105° (ESE) 03:27:47 437.505
